Race Results for
Capital Criterium
Washington, DC
(Event Information)
View By:
Criterium on 07/11/2010

Note: Ranking points are NOT upgrade points. An explanation of ranking points can be found here.


Men - Pro1/2

 Place Points NameCity, StateTime USAC #BibTeam
1Jackie Simes   1:47:05.2  32 JAMIS SUTTER HOME pb COLAVITA
2101.72Robert (Bobby) Lea   Mertztown, PA1:47:06.8 65819  94 START CYCLING-BAHATI COMPOSITE-
3Frank Travieso   1:47:10.4  35 JAMIS SUTTER HOME pb COLAVITA
4107.78Yosvany Falcon   Miami, FL1:47:10.4 208086  93 START CYCLING-BAHATI COMPOSITE-
5Anibal Borrajo   1:47:10.4  31 JAMIS SUTTER HOME pb COLAVITA
6113.84Isaac Howe   Winooski, VT1:47:10.6 201456  MOUNTAIN KHAKIS POWERED BY JITT
7Mauricio Frazer   1:47:10.6  91 START CYCLING-BAHATI COMPOSITE-
8Scott Zwizanski   1:47:10.9  21 KELLEY BENEFITS STRATEGIES
9122.93Nicholas Bennette   Seattle, WA1:47:11.0 186239  61 METLIFE p/b groSOLAR
10Diego Garavito   1:47:11.0  153 AEROCAT
11Andy Guptill   1:47:11.3  34 JAMIS SUTTER HOME pb COLAVITA
12132.02Edwin Bull   Mendham, NJ1:47:11.4 91184  53 VANDESSEL FACTORY TEAM
13135.05Lisban Quintero   New York, NY1:47:11.6 220839  131 CRCA/FOUNDATION
14138.08Mark Hekman   Winston Salem, NC1:47:11.7 72192  MOUNTAIN KHAKIS POWERED BY JITT
15141.11Thomas Brown   Athens, GA1:47:11.7 191703  MOUNTAIN KHAKIS POWERED BY JITT
16144.14Clayton Barrows   Denver, CO1:47:11.7 120470  161 AXA EQUITABLE
17Roberto Torres Aguiar   1:47:11.7  116 CHAMPION SYSTEM RACING
18150.20Brian Toone   Birmingham, AL1:47:11.8 35753  47 CYCLE LIFE COMPOSITE
19153.23Jamie Kimberley   Baltimore, MD1:47:11.8 133782  146 KBS/LSV
20156.26Jacob Mueller   Fish Creek, WI1:47:12.0 248510  147 KBS/LSV
21Chris Monteleone   1:47:12.1  13 KENDA pb GEARGRINDER
22162.32Neil Bezdek   New York, NY1:47:12.1 276693  MOUNTAIN KHAKIS POWERED BY JITT
23165.35Gavriel Epstein   Englewood, NJ1:47:12.1 179451  132 CRCA/FOUNDATION
24168.38Igor Volshteyn   Dallas, TX1:47:12.1 36785  111 CHAMPION SYSTEM RACING
25171.41Jared Nieters   Wilmington Vt1:47:12.2 220150  101 HAYMARKET BICYCLES/HOME
26174.44Jay Moglia   Washington, DC1:47:12.2 71511  42 CYCLE LIFE COMPOSITE
27177.47Alexander Bremer   Menlo Park, CA1:47:12.2 232069  63 METLIFE p/b groSOLAR
28Tony Taylor   1:47:12.3  71 ZEPHYR CYCLING TEAM
29David Gutterplan   1:47:12.4  MOUNTAIN KHAKIS POWERED BY JITT
30186.56Keck Baker   New Kent, VA1:47:12.5 211712  122 BATTLEY HARLEY DAVIDSON
31189.59Todd Hesel   Parkville, MD1:47:12.6 185182  145 KBS/LSV
32192.62Ryan DeWald   Mount Penn, PA1:47:12.7 89187  106 HAYMARKET BICYCLES/HOME
33195.65Daniel Zmolik   New York, NY1:47:12.7 204958  163 AXA EQUITABLE
34198.68John DeLong   Blacksburg, VA1:47:13.4 61583  46 CYCLE LIFE COMPOSITE
35201.71Nathaniel Wilson   Boulder, CO1:47:13.5 207985  148 KBS/LSV
36204.74Austin Roach   Bloomfield, IN1:47:13.6 255885  64 METLIFE p/b groSOLAR
37Scottie Weiss   1:47:13.7  12 KENDA pb GEARGRINDER
38210.80Michael Margarite   New York, NY1:47:13.7 211807  166 AXA EQUITABLE
39Dennis Aleman   1:47:14.0  92 START CYCLING-BAHATI COMPOSITE-
40Clay Murfet   1:47:14.4  52 VANDESSEL FACTORY TEAM
41219.89Andrew Armstrong   Dallas, TX1:47:15.1 187559  66 METLIFE p/b groSOLAR
42222.92John Loehner   New York, NY1:47:16.0 47769  164 AXA EQUITABLE
43225.95Kevin Gottlieb   San Francisco, CA1:47:18.4 226379  144 KBS/LSV
44228.98J Gabriel Lloyd   Kutztown, PA1:47:18.9 202639  62 METLIFE p/b groSOLAR
45232.01Jason Meidhof   Bethesda, MD1:47:19.1 143088  43 CYCLE LIFE COMPOSITE
46Reid Mumford   1:47:19.8  22 KELLY BENEFITS STRATEGIES
47238.07Guy East   Unionville, IN1:47:19.8 174108  24 KELLY BENEFITS STRATEGIES
48241.10Mason Haymes   Richmond, VA1:47:20.1 214730  123 BATTLEY HARLEY DAVIDSON
49244.13Nick Bax   Boulder, CO1:47:23.9 193457  45 CYCLE LIFE COMPOSITE
50247.16Timothy Rugg   Harrisonburg, VA1:47:38.0 280764  125 BATTLEY HARLEY DAVIDSON
51250.19Jake Hollenbach   Shelburne, VT1:47:51.5 189818  167 AXA EQUITABLE
52253.22Ryan Fleming   Exeter, NH1:47:52.1 184042  65 METLIFE p/b groSOLAR
53Guido Palma   1:47:52.3  33 JAMIS SUTTER HOME pb COLAVITA

Men - Masters - 35-99

 Place Points NameCity, StateTime USAC #BibTeam
1271.88Bill Gros   Ashburn, VA0:48:34.4 51036  426 
2277.71Arthur Brown   Washington, DC0:48:34.6 63036  408 
3Zometa MARTINEZ   0:48:34.6  469 
4289.37Paul Cicero   Lakewood , CO0:48:34.8 133064  412 
5295.20Matthew Braughler   Alexandria, VA0:48:34.8 269024  407 
6301.03David Rusnak   Kensington, MD0:48:35.1 151875  456 
7306.86Michael McShane   Louisville, KY0:48:35.2 23836  441 
8312.69Ramon Benitez   Glenwood, MD0:48:35.3 3304  402 
9318.52Michael King (1 - Cat2)   Woodbridge, VA0:48:35.3 103632  432 
10324.35Stephen Robinson   Arlington, VA0:48:35.4 30220  453 
11330.18Keith Reeder   Annapolis, MD0:48:35.5 210369  451 
12336.01Lawrence Byvik   Warrenton, VA0:48:35.6 5765  410 
13341.84Peter Warner   Alexandria, VA0:48:36.2 287217  466 
14347.67Derron Dart   Bethesda, MD0:48:36.2 51251  416 
15353.50Thomas Godfrey   Arlington, VA0:48:36.5 13480  423 
16359.33Joseph Rudolph   Olney, MD0:48:36.9 174793  455 
17365.16Marc Klein   Arlington, VA0:48:36.9 201836  433 
18370.99Charles Biro   Washington, DC0:48:37.0 83935  404 
19376.82Michael Davis   Centreville, VA0:48:37.1 274940  417 
20382.65William Rowlette (1 - Cat3)   Manassas, VA0:48:37.5 174638  454 
21388.48James Johnson   Frederick, MD0:48:37.6 246981  428 
22394.31Brian Rist   Elkridge, MD0:48:37.9 111782  452 
23400.14Shawn Fenty   Washington, DC0:48:38.4 52413  471 
24405.97Victor Pradel   Potomac, MD0:48:38.4 262385  449 
25411.80Michael Stearns   Arlington, VA0:48:38.5 90951  472 
26417.63Michael Bradbury   Broadlands, VA0:48:38.6 187717  406 
27423.46Paul Rades   Silver Spring, MD0:48:39.1 272645  450 
28429.29William Kanteres   Alexandria, VA0:48:39.3 256269  429 
29435.12Scott Cernich   Washington, DC0:48:39.8 206727  411 
30440.95Eric Boone   Arnold, MD0:48:40.4 293074  405 
31446.78Paul Beyer   Burke, VA0:48:43.3 233617  403 
32452.61David Kay   Washington, DC0:48:43.6 50000  430 
33458.44Gregory Vadas   Bethesda, MD0:48:43.9 36275  465 
34464.27Randy Thrasher   Germantown, MD0:48:44.1 60673  464 
35470.10William Luecke   Falls Church, VA0:48:46.5 21779  438 
36475.93Ray Manyoky   Bethesda, MD0:48:47.7 217022  439 
37481.76Michael Satterfield   Leesburg, VA0:48:52.3 141646  457 
38487.59jose pena   Alexandria0:49:08.9 292868  445 
39493.42Victor Siegfried   Reston, VA0:49:32.0 185280  461 
40499.25Bryan Burns   Haymarket, VA0:51:45.8 237069  409 

Men - Cat1/2/3

 Place Points NameCity, StateTime USAC #BibTeam
1194.88Timothy Brown   Venice, CA1:03:32.5 281236  212 Battley Harley-Davidson
2203.48Curtis Winsor   Charlottesville, VA1:03:32.5 187500  277 Kelly Benefits
3212.08donald brew   Temple Hills, MD1:03:32.6 257603  210 Artemis
4220.68Andrew Shaw   Alexandria, VA1:03:32.8 116102  267 NCVC
5229.28Ben Reynolds   Annapolis, MD1:03:32.9 147430  261 
6Serge ATOCHA   1:03:33.1  288 Champion System Racing
7246.48Stephen Wahl   Churchton, MD1:03:33.5 228826  272 ABRT
8255.08Christopher Schmidt   Falls Church, VA1:03:33.5 74299  266 Artemis
9263.68Yanni Papadopoulos   Silver Spring, MD1:03:33.6 146488  256 ABRT
10272.28Peter Custer   Hampton, VA1:03:33.9 162204  217 Bicycle Pro Shop
11280.88Russell Brown   Gaithersburg, MD1:03:34.0 222506  213 Investors Bank
12Robert SNEFFIELD   1:03:34.1  286 NCVC
13298.08Sean ORourke   Alexandria, VA1:03:34.4 220702  254 Battley Harley Davidson
14306.68Justin Desilets   Riverton, UT1:03:35.1 209451  218 Evolution/Long & Foster
15Jorge MARCENARO   1:03:35.2  285 Artemis
16323.88Andrew Bridges   Bristow, VA1:03:36.2 289668  211 Haymarket Bikes
17332.48Michael (Mike) Esmonde   Washington, DC1:03:36.6 182417  222 Cycle Life
18341.08Weston Schempf   Rockville, MD1:03:39.9 122030  265 C3
19349.68Matthew Neigh   Germantown, MD1:03:40.6 219908  249 ABRT
20Ganzalo ESCOBAR   1:03:41.7  283 Haymarket Bikes
21366.88Joshua Flexman   San Rafael, CA1:03:42.2 291256  225 Cycle Life
22375.48William Morris   Derry, NH1:03:49.1 296995  247 Cycle Life
23384.08Martin Austermuhle   Washington, DC1:04:02.5 274500  203 District Velocity
24392.68Kurt Wolfgang   San Francisco, CA1:04:06.0 266467  278 Cycle Life
25401.28Jason Beck   Kirtland Afb, NM1:04:06.8 264784  205 GamJams
26409.88Russell Williford   Corvallis, OR1:04:27.7 229467  275 WWVC
27418.48Brandon Lumm   Washington, DC1:04:28.0 95106  243 Rtel
28Ralph MUOLO   1:04:44.7  287 Kelly Benefits
29435.68Michael Retzlaff   Baltimore, MD1:04:44.8 212535  260 Kelley
30444.28Brigham Lumm   Washington, DC1:04:54.3 258015  242 Rtel
31452.88Richard Distad (1 - Cat2)   Crofton, MD1:05:00.0 239630  219 Cycle Life
32461.48Nicholas Taylor   Arlington, VA1:05:03.0 305092  271 WWVC
33470.08Eric Boone   Arnold, MD1:05:03.1 293074  209 Kelley
34478.68Bruno Neto   Derwood, MD1:05:12.9 221645  250 Bike Doctor
35487.28Mark Babcock   Athens, GA1:05:16.0 250228  204 
36495.88Keith Reeder   Annapolis, MD1:05:16.0 210369  259 Atlantic F
37504.48Ryan Bodge   Washington, DC1:05:16.7 208038  208 Bicycle Pro Shop
38Damien DUNN   1:06:28.3  282 TBB Sports

Women - Cat1/2/3

 Place Points NameCity, StateTime USAC #BibTeam
1Laura MCCAUGHEY   10:25:54.7  619 Salamander
2199.53Colleen Gulick   Spring City, PA10:25:54.7 180423  608 Kenda
3214.39Erin Silliman   Richmond, VA10:25:54.7 260287  625 Fruit66/Artemis
4229.25Ainhoa Perez-Diez   Olney, MD10:25:54.7 274754  624 NVRC
5244.11Rebecca Wellons   Hudson, MA10:25:54.7 165493  627 BMW-Bianchi
6258.97EMMA SWATMAN   Centreville, VA10:25:54.7 287494  630 SynFit
7273.83Leslie Jennings   Washington, DC10:25:54.8 167524  615 
8288.69Amanda Watson   Washington, DC10:25:54.8 256260  633 Fruit66/Artemis
9303.55Heidi Goldberg   Washington, DC10:25:54.8 201897  607 Kenda
10318.41Sonja Evers   Washington, DC10:25:54.8 144435  606 Cyclelife
11333.27Marni Harker   Washington, DC10:25:54.8 15086  610 Kenda
12348.13Jennifer Maxwell   Washington, DC10:25:54.8 61179  618 Kenda
13362.99Dori Buckethal   Glenwood, MD10:25:54.8 257747  628 NVRC
14377.85Sarah Iepson   Oaklyn, NJ10:25:54.8 254065  614 Cawes
15392.71Ilana Knopf (1 - Cat3)   Medford, MA10:25:54.9 83056  632 DC MTB
16407.57Sue McQuiston   Reisterstown, MD10:25:54.9 231948  621 ABRT

Report missing or incorrect license numbers

Volkswagen
Sierra NevadaSpyUSACDFShimanoBonk Breaker
UCI USA Cycling is the official governing body for all disciplines of competitive cycling in the United States. The 501c3, membership-based organization aims both to achieve sustained success in international cycling competition and to grow competitive cycling in America while delivering an exceptional customer experience.
View Children's Online Privacy Protection Policy
US Olympic Committee